Hoole, United Kingdom
Current Conditions -  °F | °C
As of 4:20 PM on Thursday 30 Oct 2014 (Local Time) from EGNR Reporting Station
Scattered Clouds Scattered Clouds  
Wind Chill: 63°   Ceiling: Unl
Heat Index: 63°   Visibility: 6mi
Dew Point: 59°   Wind: 6mph
Humidity: 88%   Direction: 160°SSE
Pressure: 29.97"   Gusts: NA
Location:  53.2°N, 2.88°W
Report Text: EGNR 301620Z 16005KT 9999 FEW011 SCT032 17/15 Q1015
Loading
Personal Weather Stations






























Interactive Weather Map
Tropical Storm Tracking
New forecast layout! Learn more

10-Day Weather Forecast

Advertisements
Track Severe Weather on mobile